Location: Gollag?dem
(16.8053°N, 80.8024°E)
Time: 17:39:55
(UTC+00:00)

Cosmos 1315 Rocket - Pass Details

Date: 13 August 2020
Orbit: 528 x 569 km, 81.2° (Epoch: 18 September)

Event Time Altitude Azimuth Distance (km) Brightness Sun altitude
Rises 23:34:12 0° 183° (S) 2,737 6.2 -11.4°
Reaches altitude 10° 23:36:21 10° 181° (S) 1,848 5.3 -10.9°
Maximum altitude 23:40:26 78° 96° (E) 582 3.0 -10.0°
Drops below altitude 10° 23:44:33 10° 9° (N) 1,864 5.9 -9.0°
Sets 23:46:44 0° 8° (N) 2,763 6.8 -8.5°
